STARLINK-32342

Last updated on Fri Oct 04 2024 00:02:04 GMT+0000 (Coordinated Universal Time)

1 61217U 24171T 24277.58334491 -.01378053 00000+0 -11453-1 0 9994 2 61217 53.1606 231.8617 0000628 85.7661 199.3627 15.72368263 3280
UTC large
Height (km)
Speed (km/s)
/
Latitude / Longitude
Inclination (degrees)
Orbital Period (minutes)
Azimuth
Elevation
Range (km)
Doppler Factor

Next 0 passes for location: London (51.5072 / 0.1276)

Sorry there are no passes over London.